| time (UTC) | temp C | wind direction | speed KPH | gust KPH | rain 1hr cm | rain 24hr cm | rain mn cm | humidity % | barometer mb |
| 20260504211927 | 20 | 214 | 6.4 | 19.3 | 0.00 | 0.00 | 0.00 | 35 | 787.2 |
| 20260504211427 | 20 | 197 | 1.6 | 19.3 | 0.00 | 0.00 | 0.00 | 35 | 796.6 |
| 20260504210926 | 20 | 220 | 1.6 | 20.9 | 0.00 | 0.00 | 0.00 | 35 | 838.7 |
| 20260504210425 | 20 | 268 | 3.2 | 20.9 | 0.00 | 0.00 | 0.00 | 34 | 870.8 |
| 20260504205409 | 20 | 222 | 4.8 | 20.9 | 0.00 | 0.00 | 0.00 | 32 | 781.9 |
| 20260504204908 | 20 | 188 | 4.8 | 20.9 | 0.00 | 0.00 | 0.00 | 32 | 763.8 |
| 20260504204407 | 20 | 348 | 3.2 | 20.9 | 0.00 | 0.00 | 0.00 | 32 | 754.2 |
| 20260504203907 | 20 | 225 | 4.8 | 20.9 | 0.00 | 0.00 | 0.00 | 32 | 619.1 |
| 20260504203405 | 20 | 37 | 1.6 | 20.9 | 0.00 | 0.00 | 0.00 | 32 | 547.2 |
| 20260504202348 | 20 | 253 | 1.6 | 20.9 | 0.00 | 0.00 | 0.00 | 32 | 801.7 |
| 20260504201847 | 20 | 198 | 3.2 | 20.9 | 0.00 | 0.00 | 0.00 | 32 | 751.8 |
| 20260504201346 | 20 | 205 | 3.2 | 20.9 | 0.00 | 0.00 | 0.00 | 32 | 755.9 |
| 20260504200845 | 20 | 189 | 0.0 | 20.9 | 0.00 | 0.00 | 0.00 | 33 | 742.4 |
| 20260504200345 | 20 | 212 | 4.8 | 20.9 | 0.00 | 0.00 | 0.00 | 32 | 769.6 |
| 20260504195844 | 20 | 217 | 6.4 | 20.9 | 0.00 | 0.00 | 0.00 | 31 | 741.2 |
| 20260504195343 | 20 | 195 | 3.2 | 32.2 | 0.00 | 0.00 | 0.00 | 32 | 770.3 |
| 20260504194841 | 20 | 222 | 6.4 | 32.2 | 0.00 | 0.00 | 0.00 | 31 | 797.0 |
| 20260504194341 | 20 | 270 | 3.2 | 19.3 | 0.00 | 0.00 | 0.00 | 32 | 789.2 |
| 20260504193324 | 20 | 204 | 3.2 | 19.3 | 0.00 | 0.00 | 0.00 | 31 | 692.8 |
| 20260504192823 | 20 | 168 | 1.6 | 19.3 | 0.00 | 0.00 | 0.00 | 33 | 643.8 |
| 20260504191806 | 20 | 303 | 1.6 | 22.5 | 0.00 | 0.00 | 0.00 | 32 | 809.9 |
| 20260504191305 | 20 | 183 | 9.7 | 22.5 | 0.00 | 0.00 | 0.00 | 30 | 744.8 |
| 20260504190248 | 21 | 294 | 3.2 | 17.7 | 0.00 | 0.00 | 0.00 | 30 | 797.7 |
| 20260504185747 | 20 | 338 | 4.8 | 20.9 | 0.00 | 0.00 | 0.00 | 32 | 805.9 |
| 20260504185246 | 20 | 222 | 6.4 | 20.9 | 0.00 | 0.00 | 0.00 | 30 | 799.3 |
| 20260504184744 | 20 | 212 | 4.8 | 17.7 | 0.00 | 0.00 | 0.00 | 29 | 791.6 |
| 20260504184244 | 20 | 227 | 0.0 | 19.3 | 0.00 | 0.00 | 0.00 | 29 | 790.8 |
| 20260504183743 | 20 | 205 | 4.8 | 19.3 | 0.00 | 0.00 | 0.00 | 29 | 770.0 |
| 20260504183242 | 20 | 176 | 3.2 | 19.3 | 0.00 | 0.00 | 0.00 | 29 | 781.5 |
| 20260504182741 | 20 | 218 | 4.8 | 19.3 | 0.00 | 0.00 | 0.00 | 30 | 830.1 |
| 20260504181724 | 20 | 204 | 6.4 | 19.3 | 0.00 | 0.00 | 0.00 | 28 | 815.4 |
| 20260504181223 | 21 | 115 | 3.2 | 17.7 | 0.00 | 0.00 | 0.00 | 28 | 834.7 |
| 20260504180722 | 21 | 181 | 1.6 | 17.7 | 0.00 | 0.00 | 0.00 | 29 | 846.1 |
| 20260504180221 | 20 | 308 | 1.6 | 17.7 | 0.00 | 0.00 | 0.00 | 29 | 914.1 |
| 20260504175720 | 20 | 236 | 3.2 | 17.7 | 0.00 | 0.00 | 0.00 | 28 | 897.2 |
| 20260504175219 | 20 | 237 | 4.8 | 17.7 | 0.00 | 0.00 | 0.00 | 30 | 777.0 |
| 20260504174718 | 20 | 193 | 3.2 | 17.7 | 0.00 | 0.00 | 0.00 | 29 | 734.1 |
| 20260504173701 | 19 | 207 | 9.7 | 19.3 | 0.00 | 0.00 | 0.00 | 28 | 797.9 |
| 20260504173201 | 19 | 208 | 4.8 | 17.7 | 0.00 | 0.00 | 0.00 | 28 | 822.4 |
| 20260504172144 | 19 | 10 | 3.2 | 17.7 | 0.00 | 0.00 | 0.00 | 30 | 811.3 |
| 20260504171643 | 19 | 219 | 4.8 | 19.3 | 0.00 | 0.00 | 0.00 | 31 | 763.5 |
| 20260504170626 | 19 | 264 | 1.6 | 19.3 | 0.00 | 0.00 | 0.00 | 31 | 769.1 |
| 20260504150952 | 17 | 234 | 1.6 | 19.3 | 0.00 | 0.00 | 0.00 | 35 | 710.7 |
| 20260504150451 | 17 | 321 | 3.2 | 17.7 | 0.00 | 0.00 | 0.00 | 37 | 779.8 |
| 20260504130329 | 14 | 237 | 3.2 | 19.3 | 0.00 | 0.00 | 0.00 | 43 | 888.2 |
| 20260504120249 | 10 | 202 | 0.0 | 19.3 | 0.00 | 0.00 | 0.00 | 58 | 761.3 |
| 20260504090104 | 2 | 44 | 0.0 | 19.3 | 0.00 | 0.00 | 0.00 | 83 | 286.4 |
| 20260504081542 | 2 | 44 | 0.0 | 19.3 | 0.00 | 0.00 | 0.00 | 78 | 285.7 |
| 20260504081041 | 3 | 44 | 0.0 | 19.3 | 0.00 | 0.00 | 0.00 | 78 | 285.7 |
| 20260504080541 | 3 | 44 | 0.0 | 19.3 | 0.00 | 0.00 | 0.00 | 77 | 285.8 |
| 20260504050325 | 1 | 35 | 0.0 | 19.3 | 0.00 | 0.00 | 0.00 | 86 | 258.3 |
| 20260504045824 | 1 | 35 | 0.0 | 19.3 | 0.00 | 0.00 | 0.00 | 86 | 258.2 |
| 20260504045323 | 1 | 35 | 0.0 | 19.3 | 0.00 | 0.00 | 0.00 | 87 | 258.4 |
| 20260504044822 | 1 | 35 | 0.0 | 19.3 | 0.00 | 0.00 | 0.00 | 86 | 258.6 |
| 20260504044321 | 1 | 35 | 0.0 | 19.3 | 0.00 | 0.00 | 0.00 | 86 | 258.5 |
| 20260504043820 | 1 | 35 | 0.0 | 19.3 | 0.00 | 0.00 | 0.00 | 86 | 258.4 |
| 20260504043319 | 1 | 35 | 0.0 | 19.3 | 0.00 | 0.00 | 0.00 | 85 | 258.3 |
| 20260504042304 | 1 | 35 | 0.0 | 19.3 | 0.00 | 0.00 | 0.00 | 86 | 258.4 |
| 20260504041801 | 1 | 35 | 0.0 | 19.3 | 0.00 | 0.00 | 0.00 | 85 | 258.4 |
| 20260504041300 | 1 | 35 | 0.0 | 19.3 | 0.00 | 0.00 | 0.00 | 84 | 258.2 |
| 20260504040759 | 1 | 35 | 0.0 | 19.3 | 0.00 | 0.00 | 0.00 | 85 | 258.1 |
| 20260504040258 | 1 | 35 | 0.0 | 19.3 | 0.00 | 0.00 | 0.00 | 86 | 258.1 |
| 20260504035241 | 1 | 35 | 0.0 | 19.3 | 0.00 | 0.00 | 0.00 | 85 | 258.6 |
| 20260504034740 | 1 | 35 | 0.0 | 19.3 | 0.00 | 0.00 | 0.00 | 85 | 258.7 |
| 20260504034239 | 1 | 35 | 0.0 | 19.3 | 0.00 | 0.00 | 0.00 | 85 | 259.1 |
| 20260504033738 | 1 | 35 | 0.0 | 19.3 | 0.00 | 0.00 | 0.00 | 85 | 259.1 |
| 20260504032205 | 1 | 35 | 0.0 | 19.3 | 0.00 | 0.00 | 0.00 | 84 | 258.7 |
| 20260504031705 | 1 | 35 | 0.0 | 19.3 | 0.00 | 0.00 | 0.00 | 83 | 258.7 |
| 20260504031204 | 1 | 35 | 0.0 | 19.3 | 0.00 | 0.00 | 0.00 | 83 | 258.7 |
| 20260504030703 | 1 | 35 | 0.0 | 19.3 | 0.00 | 0.00 | 0.00 | 83 | 258.7 |
| 20260504030203 | 1 | 35 | 0.0 | 19.3 | 0.00 | 0.00 | 0.00 | 83 | 258.6 |
| 20260504025702 | 1 | 35 | 0.0 | 19.3 | 0.00 | 0.00 | 0.00 | 82 | 258.6 |
| 20260504025201 | 1 | 35 | 0.0 | 19.3 | 0.00 | 0.00 | 0.00 | 82 | 258.6 |
| 20260504024700 | 1 | 35 | 0.0 | 19.3 | 0.00 | 0.00 | 0.00 | 82 | 258.8 |
| 20260504024159 | 1 | 35 | 0.0 | 19.3 | 0.00 | 0.00 | 0.00 | 82 | 258.9 |
| 20260504023658 | 1 | 35 | 0.0 | 19.3 | 0.00 | 0.00 | 0.00 | 82 | 258.8 |
| 20260504023157 | 1 | 35 | 0.0 | 19.3 | 0.00 | 0.00 | 0.00 | 80 | 258.7 |
| 20260504022656 | 2 | 35 | 0.0 | 19.3 | 0.00 | 0.00 | 0.00 | 81 | 258.9 |
| 20260504022155 | 2 | 35 | 0.0 | 19.3 | 0.00 | 0.00 | 0.00 | 80 | 259.0 |
| 20260504021138 | 2 | 35 | 0.0 | 19.3 | 0.00 | 0.00 | 0.00 | 79 | 258.9 |
| 20260504020637 | 2 | 35 | 0.0 | 19.3 | 0.00 | 0.00 | 0.00 | 79 | 258.9 |
| 20260504020136 | 2 | 35 | 0.0 | 19.3 | 0.00 | 0.00 | 0.00 | 79 | 258.8 |
| 20260504015635 | 2 | 35 | 0.0 | 19.3 | 0.00 | 0.00 | 0.00 | 78 | 259.0 |
| 20260504015135 | 2 | 35 | 0.0 | 19.3 | 0.00 | 0.00 | 0.00 | 78 | 259.0 |
| 20260504014633 | 2 | 35 | 0.0 | 19.3 | 0.00 | 0.00 | 0.00 | 77 | 258.9 |
| 20260504014133 | 2 | 35 | 0.0 | 19.3 | 0.00 | 0.00 | 0.00 | 76 | 259.0 |
| 20260504013632 | 2 | 35 | 0.0 | 19.3 | 0.00 | 0.00 | 0.00 | 75 | 259.0 |
| 20260504013131 | 3 | 35 | 0.0 | 19.3 | 0.00 | 0.00 | 0.00 | 74 | 258.8 |
| 20260504012630 | 3 | 35 | 0.0 | 19.3 | 0.00 | 0.00 | 0.00 | 73 | 258.6 |
| 20260504012129 | 3 | 35 | 0.0 | 19.3 | 0.00 | 0.00 | 0.00 | 73 | 258.6 |
| 20260504011628 | 3 | 35 | 0.0 | 19.3 | 0.00 | 0.00 | 0.00 | 73 | 258.7 |
| 20260504011127 | 3 | 35 | 0.0 | 19.3 | 0.00 | 0.00 | 0.00 | 73 | 258.5 |
| 20260504010626 | 3 | 35 | 0.0 | 19.3 | 0.00 | 0.00 | 0.00 | 71 | 258.6 |
| 20260504005609 | 4 | 35 | 0.0 | 19.3 | 0.00 | 0.00 | 0.00 | 69 | 258.7 |
| 20260504005108 | 5 | 35 | 0.0 | 19.3 | 0.00 | 0.00 | 0.00 | 68 | 258.8 |
| 20260504004607 | 5 | 35 | 0.0 | 19.3 | 0.00 | 0.00 | 0.00 | 68 | 258.7 |
| 20260504004106 | 5 | 35 | 0.0 | 19.3 | 0.00 | 0.00 | 0.00 | 66 | 258.8 |
| 20260504003605 | 5 | 35 | 0.0 | 19.3 | 0.00 | 0.00 | 0.00 | 66 | 258.9 |
| 20260504003104 | 5 | 35 | 0.0 | 19.3 | 0.00 | 0.00 | 0.00 | 65 | 259.0 |
| 20260504002603 | 6 | 35 | 0.0 | 19.3 | 0.00 | 0.00 | 0.00 | 62 | 259.2 |
| 20260504002103 | 6 | 35 | 0.0 | 19.3 | 0.00 | 0.00 | 0.00 | 62 | 259.4 |
| 20260504001603 | 6 | 35 | 0.0 | 19.3 | 0.00 | 0.00 | 0.00 | 61 | 259.7 |
| 20260504001101 | 7 | 35 | 0.0 | 19.3 | 0.00 | 0.00 | 0.00 | 62 | 259.9 |
| 20260504000600 | 7 | 35 | 0.0 | 19.3 | 0.00 | 0.00 | 0.00 | 60 | 260.3 |
| 20260504000100 | 7 | 35 | 0.0 | 19.3 | 0.00 | 0.00 | 0.00 | 59 | 260.8 |
| 20260503235558 | 7 | 35 | 0.0 | 19.3 | 0.00 | 0.00 | 0.00 | 56 | 261.5 |
| 20260503235057 | 8 | 35 | 0.0 | 19.3 | 0.00 | 0.00 | 0.00 | 59 | 262.6 |
| 20260503233525 | 8 | 35 | 0.0 | 19.3 | 0.00 | 0.00 | 0.00 | 52 | 276.2 |
| 20260503231953 | 9 | 35 | 0.0 | 19.3 | 0.00 | 0.00 | 0.00 | 46 | 384.7 |
| 20260503231452 | 9 | 35 | 0.0 | 19.3 | 0.00 | 0.00 | 0.00 | 46 | 509.3 |
| 20260503230950 | 10 | 35 | 0.0 | 19.3 | 0.00 | 0.00 | 0.00 | 48 | 766.2 |
| 20260503230450 | 10 | 342 | 0.0 | 19.3 | 0.00 | 0.00 | 0.00 | 44 | 1116.4 |
| 20260503225949 | 10 | 342 | 0.0 | 19.3 | 0.00 | 0.00 | 0.00 | 41 | 1059.5 |
| 20260503224932 | 10 | 341 | 0.0 | 19.3 | 0.00 | 0.00 | 0.00 | 40 | 692.6 |
| 20260503224431 | 10 | 44 | 3.2 | 19.3 | 0.00 | 0.00 | 0.00 | 39 | 254.7 |
| 20260503223930 | 10 | 12 | 0.0 | 19.3 | 0.00 | 0.00 | 0.00 | 40 | 235.8 |
| 20260503223428 | 10 | 0 | 1.6 | 19.3 | 0.00 | 0.00 | 0.00 | 41 | 285.3 |
| 20260503222928 | 10 | 5 | 1.6 | 19.3 | 0.00 | 0.00 | 0.00 | 39 | 402.4 |
| 20260503222427 | 10 | 29 | 1.6 | 19.3 | 0.00 | 0.00 | 0.00 | 40 | 601.7 |
| 20260503221926 | 10 | 345 | 3.2 | 19.3 | 0.00 | 0.00 | 0.00 | 38 | 617.6 |
| 20260503221426 | 10 | 22 | 3.2 | 19.3 | 0.00 | 0.00 | 0.00 | 37 | 732.4 |
| 20260503220925 | 10 | 272 | 0.0 | 19.3 | 0.00 | 0.00 | 0.00 | 39 | 941.9 |
| 20260503220425 | 10 | 219 | 0.0 | 19.3 | 0.00 | 0.00 | 0.00 | 40 | 952.4 |
| 20260503215924 | 10 | 359 | 1.6 | 19.3 | 0.00 | 0.00 | 0.00 | 41 | 978.8 |
| 20260503215423 | 10 | 299 | 0.0 | 19.3 | 0.00 | 0.00 | 0.00 | 41 | 833.0 |
| 20260503214922 | 10 | 311 | 3.2 | 19.3 | 0.00 | 0.00 | 0.00 | 38 | 608.5 |
| 20260503214421 | 10 | 57 | 1.6 | 19.3 | 0.00 | 0.00 | 0.00 | 40 | 427.4 |
| 20260503213920 | 10 | 37 | 3.2 | 19.3 | 0.00 | 0.00 | 0.00 | 40 | 535.5 |
| 20260503213419 | 10 | 25 | 4.8 | 19.3 | 0.00 | 0.00 | 0.00 | 38 | 537.4 |
| 20260503212918 | 10 | 57 | 1.6 | 19.3 | 0.00 | 0.00 | 0.00 | 41 | 638.2 |
| 20260503212417 | 10 | 354 | 1.6 | 19.3 | 0.00 | 0.00 | 0.00 | 41 | 764.8 |